Flag for U.S.A. Weather past 2 weeks in Portsmouth, Virginia, U.S.A.

65 °F

Passing clouds.

Feels Like: 65 °F
Forecast: 60 / 80 °F
Wind: 6 mph from South

Location: Norfolk Naval Air Station

Current Time: Oct 9, 2015 at 5:24:00 AM

Latest Report: Oct 9, 2015 at 4:59 AM

Visibility: 9 mi

Pressure: 30.09 "Hg

Humidity: 85%

Dew point: 60 °F

Location of PortsmouthLocation

Historic Weather in Portsmouth — Graph


Portsmouth temperature yesterday

Maximum temperature yesterday: 78 °F (at 1:59 PM)
Minimum temperature yesterday: 59 °F (at 5:59 AM)
Average temperature yesterday: 68 °F

Past Weeks' High & Low Weather Summary

High84 °F (Sep 29, 1:59 PM)94% (Sep 30, 5:59 AM)30.26 "Hg (Sep 30, 5:59 AM)
Low56 °F (Oct 7, 2:59 AM)50% (Oct 8, 2:59 PM)29.74 "Hg (Sep 30, 3:59 AM)
Average71 °F81%30.03 "Hg
* Reported Sep 24 3:59 AM — Oct 9 3:59 AM, Portsmouth, Weather by CustomWeather, © 2015

Note: Actual official high and low records may vary slightly from our data, if they occured in-between our weather recording intervals... More about our weather records


Portsmouth weather history for previous 24 hours

Time TempWeatherWind HumidityBarometerVisibility
3:59 AM
Fri, Oct 9
65 °FPassing clouds.7 mph85%30.09 "Hg10 mi
2:59 AM65 °FPassing clouds.6 mph81%30.10 "Hg10 mi
1:59 AM65 °FPartly cloudy.5 mph85%30.11 "Hg10 mi
12:59 AM65 °FPassing clouds.6 mph81%30.11 "Hg10 mi
11:59 PM
Thu, Oct 8
66 °FPassing clouds.6 mph84%30.12 "Hg9 mi
10:59 PM66 °FPassing clouds.6 mph81%30.13 "Hg9 mi
9:59 PM66 °FPassing clouds.6 mph75%30.13 "Hg10 mi
8:59 PM67 °FPassing clouds.5 mph71%30.12 "Hg10 mi
7:59 PM68 °FPassing clouds.5 mph61%30.12 "Hg10 mi
6:59 PM70 °FScattered clouds.5 mph59%30.11 "Hg10 mi
5:59 PM73 °FScattered clouds.7 mph55%30.11 "Hg10 mi
4:59 PM76 °FScattered clouds.5 mph50%30.11 "Hg10 mi
3:59 PM76 °FScattered clouds.7 mph50%30.11 "Hg10 mi
2:59 PM77 °FScattered clouds.7 mph50%30.11 "Hg10 mi
1:59 PM78 °FScattered clouds.7 mph52%30.13 "Hg10 mi
12:59 PM76 °FScattered clouds.3 mph58%30.15 "Hg9 mi
11:59 AM76 °FScattered clouds.7 mph58%30.16 "Hg10 mi
10:59 AM74 °FScattered clouds.5 mph64%30.16 "Hg9 mi
8:59 AM68 °FPassing clouds.3 mph82%30.14 "Hg8 mi
7:59 AM62 °FPassing clouds.No wind93%30.13 "Hg8 mi
6:59 AM61 °FClear.No wind90%30.12 "Hg8 mi
5:59 AM59 °FClear.No wind93%30.11 "Hg7 mi
Weather by CustomWeather, © 2015

See weather overviewHow to use our weather pages